{"data":{"norad_id":52110,"intl_designator":"2022-029Y","name":"STARLINK-3687","alt_names":[],"object_type":"PAYLOAD","status":"ACTIVE","operator":null,"country":"US","launch_date":"2022-03-19","launch_site_code":"AFETR","launch_vehicle":null,"mission":null,"orbit_class":"UNKNOWN","rcs_meters":null,"size_class":null,"mass_kg":null,"dimensions":null,"purposes":["comms"],"wikipedia_slug":null,"has_3d_model":false,"image_url":null,"decayed_at":null,"tle_current":{"epoch":"2026-05-25T03:17:45.972960Z","epoch_age_seconds":57182,"freshness":"FRESH","line1":"1 52110U 22029Y   26145.13733765 -.00000754  00000+0 -29280-4 0  9999","line2":"2 52110  53.2140  95.9329 0001743  83.1882 276.9308 15.08845248232320","mean_motion":15.08845248,"eccentricity":0.0001743,"inclination_deg":53.214,"raan_deg":95.9329,"arg_perigee_deg":83.1882,"mean_anomaly_deg":276.9308,"bstar":-2.928e-5,"rev_number":23232,"period_min":95.437222731009,"perigee_km":538.52156421824,"apogee_km":540.93313172994,"semimajor_km":6917.8643479741,"source":"CELESTRAK","updated_at":"2026-05-25T13:38:17.072928Z"}}}